Weather in Barybino

Russia / Moscow Oblast     54°56′11″N   37°47′11″E
temp.,
°C
wind,
m/s
gust,
m/s
humid.,
%
clouds,
%
prec.,
mm/h
press.,
hPa
HPBL,
m
25 february, thu
thu2500:00−12ssw3794100 0.1 1028312
03:00−10sw4995100 0.4 1025316
06:00−6sw41295100 1.8 1020381
09:00+1wsw61596100 2.5 1016720
12:00+2w513100100 0.6 1014534
15:00+3wnw414100100 0.6 1015541
18:00+2wnw41099100 0.1 1015358
21:00+2w37100100 0.1 1016202
26 february, fri
fri2600:00+2wsw3999100 0.3 1015261
03:00+2w41299100 1.6 1014397
06:00+2wsw51399100 0.4 1012373
09:00+3wsw51398100 0.4 1010485
12:00+3w51498100 0.2 1007584
15:00+4w61697100 0.4 1006697
18:00+3w51493100 0.2 10051027
21:00+2w61486100 0.3 10061118
27 february, sat
sat2700:00+1wnw5148893 0.0 1005823
03:000w6148980 0.0 1005659
06:00+1wnw5119258 0.0 1004765
09:00+1wnw499779 0.1 1004650
12:00+1wnw4890100 0.0 1004731
15:00+1nw4893100 0.1 1006656
18:000nw3997100 0.1 1008495
21:00−1nw399797 0.4 1010447
28 february, sun
sun2800:00−2nw399791 0.4 1010434
03:00−2nnw5109695 1.2 1012635
06:00−3nnw41094100 0.4 1014618
09:00−3nnw41091100 0.6 1015552
12:00−2nnw488597 0.1 1017728
15:00−2nnw478399 0.1 1018877
18:00−3nnw4887100 0.1 1019694
21:00−4n3788100 0.2 1022715
1 march, mon
mon100:00−5n2693100 0.1 1024341
03:00−5nnw2590100 0.1 1026491
06:00−5nnw1591100 0.1 1027435
09:00−5wnw2485100 0.1 1029394
12:00−2wnw248298 0.0 1030619
15:00−1w468193 0.0 1029540
18:00−3w4108993 0.0 1029392
21:00−1w4119496 0.0 1028494